Station Historical Data
Daily Summary for June 13, 2017 Units:  English    Metric   Both
« Previous Day
Next Day »
Daily Weekly Monthly Yearly Custom
  High: Low: Average:
Temperature: 82.9 °F 66.3 °F 74.8 °F
Dew Point: 66.8 °F 54.2 °F 63.2 °F
Humidity: 86% 38% 68%
Wind Speed: 8.0mph 0.0mph 2.1mph
Wind Gust: 14.0mph - -
Wind- - SSE
Pressure: 29.99 in 29.89 in -
Precipitation: 0.00 in    
Historical Graphs
 
 
Tabular Data for June 13, 2017
Time Temperature Dew Point Pressure Wind Wind Speed Wind Gust Humidity Rainfall Rate (Hourly)
00:04 74.8 °F 63.1 °F 29.91 in Calm   3.0 mph 67% 0.00 in
00:09 74.7 °F 63.4 °F 29.91 in Calm   2.0 mph 68% 0.00 in
00:14 74.5 °F 63.2 °F 29.91 in Calm     68% 0.00 in
00:19 74.3 °F 63.1 °F 29.91 in Calm     68% 0.00 in
00:24 74.1 °F 63.3 °F 29.91 in Calm     69% 0.00 in
00:29 73.9 °F 63.1 °F 29.91 in Calm   3.0 mph 69% 0.00 in
00:34 74.0 °F 63.2 °F 29.91 in SW 1.0 mph 3.0 mph 69% 0.00 in
00:39 74.0 °F 63.2 °F 29.91 in SW 1.0 mph 2.0 mph 69% 0.00 in
00:44 74.3 °F 63.5 °F 29.91 in Calm   2.0 mph 69% 0.00 in
00:49 74.6 °F 63.8 °F 29.91 in Calm   3.0 mph 69% 0.00 in
00:54 74.7 °F 63.9 °F 29.91 in Calm   1.0 mph 69% 0.00 in
00:59 74.8 °F 63.5 °F 29.91 in Calm     68% 0.00 in
01:04 74.9 °F 63.6 °F 29.91 in SW 3.0 mph 4.0 mph 68% 0.00 in
01:09 74.9 °F 63.6 °F 29.91 in SW 2.0 mph 3.0 mph 68% 0.00 in
01:14 74.7 °F 63.4 °F 29.91 in SW 4.0 mph 4.0 mph 68% 0.00 in
01:19 75.1 °F 63.8 °F 29.91 in SW 1.0 mph 4.0 mph 68% 0.00 in
01:24 75.4 °F 64.1 °F 29.91 in SW 1.0 mph 4.0 mph 68% 0.00 in
01:29 76.0 °F 64.2 °F 29.91 in SW 1.0 mph 5.0 mph 67% 0.00 in
01:34 76.5 °F 64.3 °F 29.91 in SW 1.0 mph 5.0 mph 66% 0.00 in
01:39 76.8 °F 64.1 °F 29.91 in Calm   6.0 mph 65% 0.00 in
01:49 77.2 °F 64.1 °F 29.91 in SW 2.0 mph 6.0 mph 64% 0.00 in
01:54 77.4 °F 64.3 °F 29.90 in SW 3.0 mph 6.0 mph 64% 0.00 in
01:59 77.4 °F 64.3 °F 29.91 in SW 3.0 mph 6.0 mph 64% 0.00 in
02:04 77.6 °F 64.5 °F 29.90 in SW 3.0 mph 6.0 mph 64% 0.00 in
02:09 77.8 °F 64.6 °F 29.90 in WSW 2.0 mph 5.0 mph 64% 0.00 in
02:14 78.0 °F 64.4 °F 29.90 in SSW 4.0 mph 7.0 mph 63% 0.00 in
02:19 78.1 °F 64.5 °F 29.90 in SW 3.0 mph 7.0 mph 63% 0.00 in
02:24 78.1 °F 64.5 °F 29.90 in SW 3.0 mph 7.0 mph 63% 0.00 in
02:29 78.0 °F 64.4 °F 29.90 in SW 1.0 mph 6.0 mph 63% 0.00 in
02:34 78.1 °F 64.5 °F 29.90 in SW 3.0 mph 5.0 mph 63% 0.00 in
02:39 77.9 °F 64.7 °F 29.90 in WSW 5.0 mph 7.0 mph 64% 0.00 in
02:44 77.7 °F 64.5 °F 29.90 in SW 3.0 mph 6.0 mph 64% 0.00 in
02:49 77.7 °F 64.5 °F 29.90 in SW 3.0 mph 8.0 mph 64% 0.00 in
02:54 77.5 °F 64.4 °F 29.90 in SW 3.0 mph 8.0 mph 64% 0.00 in
02:59 77.4 °F 64.7 °F 29.90 in SW 3.0 mph 7.0 mph 65% 0.00 in
03:04 77.3 °F 64.6 °F 29.90 in SW 3.0 mph 6.0 mph 65% 0.00 in
03:09 77.2 °F 64.5 °F 29.90 in SW 2.0 mph 6.0 mph 65% 0.00 in
03:14 76.9 °F 64.7 °F 29.89 in SW 1.0 mph 5.0 mph 66% 0.00 in
03:19 76.8 °F 64.6 °F 29.89 in SW 3.0 mph 9.0 mph 66% 0.00 in
03:24 76.7 °F 64.9 °F 29.90 in WSW 5.0 mph 7.0 mph 67% 0.00 in
03:29 76.7 °F 64.9 °F 29.89 in Calm   5.0 mph 67% 0.00 in
03:34 76.7 °F 65.3 °F 29.89 in WSW 4.0 mph 9.0 mph 68% 0.00 in
03:39 76.7 °F 65.3 °F 29.89 in SW 4.0 mph 6.0 mph 68% 0.00 in
03:44 76.8 °F 65.4 °F 29.89 in SW 3.0 mph 7.0 mph 68% 0.00 in
03:49 76.8 °F 65.4 °F 29.89 in WSW 3.0 mph 7.0 mph 68% 0.00 in
03:54 76.7 °F 65.3 °F 29.90 in WSW 3.0 mph 7.0 mph 68% 0.00 in
03:59 76.8 °F 65.4 °F 29.90 in WSW 4.0 mph 10.0 mph 68% 0.00 in
04:04 76.9 °F 65.5 °F 29.90 in WSW 4.0 mph 10.0 mph 68% 0.00 in
04:09 76.6 °F 65.7 °F 29.91 in West 3.0 mph 9.0 mph 69% 0.00 in
04:14 76.3 °F 65.4 °F 29.91 in WSW 3.0 mph 8.0 mph 69% 0.00 in
04:19 76.0 °F 65.5 °F 29.91 in WSW 3.0 mph 8.0 mph 70% 0.00 in
04:24 75.6 °F 65.1 °F 29.91 in SW 5.0 mph 6.0 mph 70% 0.00 in
04:29 75.2 °F 65.1 °F 29.91 in WSW 2.0 mph 5.0 mph 71% 0.00 in
04:34 74.9 °F 64.9 °F 29.91 in WSW 1.0 mph 5.0 mph 71% 0.00 in
04:39 74.4 °F 64.8 °F 29.91 in SW 4.0 mph 5.0 mph 72% 0.00 in
04:44 74.0 °F 64.8 °F 29.91 in WSW 4.0 mph 7.0 mph 73% 0.00 in
04:49 73.6 °F 64.4 °F 29.91 in WSW 3.0 mph 7.0 mph 73% 0.00 in
04:54 73.3 °F 64.5 °F 29.91 in WSW 3.0 mph 7.0 mph 74% 0.00 in
04:59 73.0 °F 64.6 °F 29.91 in WSW 3.0 mph 6.0 mph 75% 0.00 in
05:04 72.8 °F 64.4 °F 29.92 in WSW 2.0 mph 6.0 mph 75% 0.00 in
05:09 72.8 °F 64.8 °F 29.92 in West 2.0 mph 5.0 mph 76% 0.00 in
05:14 72.8 °F 64.8 °F 29.92 in West 2.0 mph 6.0 mph 76% 0.00 in
05:19 72.8 °F 64.8 °F 29.92 in West 4.0 mph 6.0 mph 76% 0.00 in
05:24 72.7 °F 64.7 °F 29.92 in West 3.0 mph 6.0 mph 76% 0.00 in
05:29 72.6 °F 64.6 °F 29.93 in West 4.0 mph 6.0 mph 76% 0.00 in
05:34 72.6 °F 65.0 °F 29.93 in SW 2.0 mph 9.0 mph 77% 0.00 in
05:39 72.7 °F 65.1 °F 29.93 in West 4.0 mph 8.0 mph 77% 0.00 in
05:44 72.8 °F 65.2 °F 29.93 in West 5.0 mph 6.0 mph 77% 0.00 in
05:49 72.9 °F 65.3 °F 29.93 in West 1.0 mph 9.0 mph 77% 0.00 in
05:54 72.9 °F 65.3 °F 29.93 in West 3.0 mph 9.0 mph 77% 0.00 in
05:59 72.9 °F 65.3 °F 29.93 in West 3.0 mph 7.0 mph 77% 0.00 in
06:04 73.1 °F 65.5 °F 29.94 in West 3.0 mph 6.0 mph 77% 0.00 in
06:09 73.1 °F 65.5 °F 29.94 in West 2.0 mph 5.0 mph 77% 0.00 in
06:14 73.1 °F 65.5 °F 29.93 in Calm   4.0 mph 77% 0.00 in
06:19 72.9 °F 65.3 °F 29.93 in SW 2.0 mph 5.0 mph 77% 0.00 in
06:24 72.9 °F 65.3 °F 29.93 in SW 2.0 mph 5.0 mph 77% 0.00 in
06:29 72.9 °F 65.3 °F 29.93 in SW 3.0 mph 5.0 mph 77% 0.00 in
06:34 72.9 °F 65.3 °F 29.93 in Calm   4.0 mph 77% 0.00 in
06:39 73.0 °F 65.4 °F 29.94 in West 2.0 mph 6.0 mph 77% 0.00 in
06:44 72.8 °F 65.2 °F 29.96 in WNW 2.0 mph 4.0 mph 77% 0.00 in
06:49 72.8 °F 65.2 °F 29.95 in West 3.0 mph 5.0 mph 77% 0.00 in
06:54 72.8 °F 65.2 °F 29.93 in WSW 2.0 mph 5.0 mph 77% 0.00 in
06:59 72.8 °F 65.2 °F 29.93 in SSW 2.0 mph 4.0 mph 77% 0.00 in
07:04 72.8 °F 65.2 °F 29.94 in SSW 1.0 mph 4.0 mph 77% 0.00 in
07:09 73.0 °F 65.4 °F 29.94 in SSW 1.0 mph 3.0 mph 77% 0.00 in
07:14 73.4 °F 65.7 °F 29.95 in Calm   4.0 mph 77% 0.00 in
07:19 73.4 °F 65.7 °F 29.95 in NW 2.0 mph 4.0 mph 77% 0.00 in
07:24 73.5 °F 65.5 °F 29.95 in WNW 3.0 mph 6.0 mph 76% 0.00 in
07:29 73.4 °F 64.2 °F 29.95 in NNW 2.0 mph 7.0 mph 73% 0.00 in
07:34 73.4 °F 62.6 °F 29.94 in NNW 3.0 mph 9.0 mph 69% 0.00 in
07:39 73.7 °F 62.5 °F 29.95 in NNW 3.0 mph 9.0 mph 68% 0.00 in
07:44 74.0 °F 63.2 °F 29.95 in NW 1.0 mph 6.0 mph 69% 0.00 in
07:49 73.9 °F 62.7 °F 29.96 in NNW 2.0 mph 4.0 mph 68% 0.00 in
07:54 73.7 °F 62.5 °F 29.95 in Calm   5.0 mph 68% 0.00 in
07:59 73.7 °F 62.9 °F 29.96 in North 2.0 mph 5.0 mph 69% 0.00 in
08:04 73.6 °F 63.2 °F 29.95 in NNE 1.0 mph 4.0 mph 70% 0.00 in
08:09 73.7 °F 63.3 °F 29.95 in NNW 2.0 mph 6.0 mph 70% 0.00 in
08:14 73.6 °F 63.2 °F 29.95 in Calm   5.0 mph 70% 0.00 in
08:19 73.4 °F 63.4 °F 29.96 in NE 1.0 mph 3.0 mph 71% 0.00 in
08:24 73.3 °F 63.3 °F 29.95 in Calm   1.0 mph 71% 0.00 in
08:29 73.5 °F 63.1 °F 29.96 in Calm   1.0 mph 70% 0.00 in
08:34 73.7 °F 63.3 °F 29.95 in Calm     70% 0.00 in
08:39 73.7 °F 62.9 °F 29.95 in Calm     69% 0.00 in
08:44 73.9 °F 62.7 °F 29.95 in Calm     68% 0.00 in
08:49 73.9 °F 62.7 °F 29.95 in Calm     68% 0.00 in
08:54 74.0 °F 62.3 °F 29.95 in SE 2.0 mph 3.0 mph 67% 0.00 in
08:59 74.0 °F 62.8 °F 29.95 in SE 1.0 mph 4.0 mph 68% 0.00 in
09:04 73.8 °F 63.8 °F 29.95 in Calm   2.0 mph 71% 0.00 in
09:09 73.7 °F 63.3 °F 29.95 in SSE 1.0 mph 3.0 mph 70% 0.00 in
09:14 73.9 °F 63.1 °F 29.94 in SE 2.0 mph 5.0 mph 69% 0.00 in
09:19 74.1 °F 63.7 °F 29.95 in Calm   6.0 mph 70% 0.00 in
09:24 74.4 °F 63.1 °F 29.95 in SW 2.0 mph 3.0 mph 68% 0.00 in
09:29 74.7 °F 63.9 °F 29.95 in SW 1.0 mph 3.0 mph 69% 0.00 in
09:34 75.0 °F 64.1 °F 29.95 in SSW 1.0 mph 4.0 mph 69% 0.00 in
09:39 75.1 °F 64.2 °F 29.96 in SSW 1.0 mph 4.0 mph 69% 0.00 in
09:44 74.9 °F 64.0 °F 29.96 in WSW 1.0 mph 2.0 mph 69% 0.00 in
09:49 74.8 °F 63.5 °F 29.96 in SW 1.0 mph 2.0 mph 68% 0.00 in
09:54 75.5 °F 63.8 °F 29.96 in Calm   2.0 mph 67% 0.00 in
09:59 75.7 °F 63.1 °F 29.96 in Calm   2.0 mph 65% 0.00 in
10:04 76.0 °F 63.4 °F 29.95 in Calm   2.0 mph 65% 0.00 in
10:09 77.4 °F 65.1 °F 29.95 in Calm     66% 0.00 in
10:14 78.3 °F 64.2 °F 29.95 in Calm     62% 0.00 in
10:19 78.6 °F 64.0 °F 29.95 in Calm     61% 0.00 in
10:24 79.0 °F 62.5 °F 29.95 in Calm     57% 0.00 in
10:29 79.1 °F 62.1 °F 29.95 in Calm     56% 0.00 in
10:34 79.1 °F 62.6 °F 29.95 in Calm     57% 0.00 in
10:39 80.0 °F 61.9 °F 29.95 in Calm     54% 0.00 in
10:44 80.2 °F 59.9 °F 29.95 in Calm   3.0 mph 50% 0.00 in
10:49 80.7 °F 61.4 °F 29.95 in Calm   3.0 mph 52% 0.00 in
10:54 81.8 °F 63.0 °F 29.95 in WNW 1.0 mph 3.0 mph 53% 0.00 in
10:59 81.1 °F 58.4 °F 29.95 in NW 1.0 mph 2.0 mph 46% 0.00 in
11:04 81.1 °F 58.4 °F 29.95 in NW 1.0 mph 3.0 mph 46% 0.00 in
11:09 81.7 °F 59.5 °F 29.94 in North 1.0 mph 3.0 mph 47% 0.00 in
11:14 82.3 °F 60.6 °F 29.94 in East 2.0 mph 2.0 mph 48% 0.00 in
11:19 81.9 °F 58.5 °F 29.94 in Calm   4.0 mph 45% 0.00 in
11:24 82.5 °F 60.8 °F 29.94 in NE 2.0 mph 2.0 mph 48% 0.00 in
11:29 81.8 °F 57.1 °F 29.94 in NE 3.0 mph 7.0 mph 43% 0.00 in
11:34 81.5 °F 56.8 °F 29.94 in ENE 2.0 mph 7.0 mph 43% 0.00 in
11:39 81.1 °F 56.5 °F 29.94 in ENE 1.0 mph 5.0 mph 43% 0.00 in
11:44 81.8 °F 59.0 °F 29.94 in Calm   3.0 mph 46% 0.00 in
11:49 82.0 °F 57.3 °F 29.94 in ENE 1.0 mph 3.0 mph 43% 0.00 in
11:54 82.2 °F 58.1 °F 29.95 in East 2.0 mph 3.0 mph 44% 0.00 in
11:59 82.4 °F 57.0 °F 29.95 in Calm   3.0 mph 42% 0.00 in
12:04 82.3 °F 54.2 °F 29.95 in ENE 1.0 mph 3.0 mph 38% 0.00 in
12:09 82.3 °F 57.6 °F 29.95 in NE 1.0 mph 3.0 mph 43% 0.00 in
12:14 81.9 °F 56.6 °F 29.95 in NE 2.0 mph 4.0 mph 42% 0.00 in
12:19 82.1 °F 58.0 °F 29.95 in Calm   3.0 mph 44% 0.00 in
12:24 82.1 °F 58.0 °F 29.95 in ENE 2.0 mph 5.0 mph 44% 0.00 in
12:29 82.9 °F 58.7 °F 29.95 in ENE 2.0 mph 7.0 mph 44% 0.00 in
12:34 82.7 °F 62.7 °F 29.95 in NNE 3.0 mph 9.0 mph 51% 0.00 in
12:39 82.7 °F 63.8 °F 29.95 in North 3.0 mph 9.0 mph 53% 0.00 in
12:44 82.5 °F 63.6 °F 29.95 in NNE 4.0 mph 6.0 mph 53% 0.00 in
12:49 81.4 °F 63.2 °F 29.95 in NNW 2.0 mph 7.0 mph 54% 0.00 in
12:54 81.0 °F 63.3 °F 29.95 in North 2.0 mph 8.0 mph 55% 0.00 in
12:59 81.0 °F 63.3 °F 29.95 in NNE 1.0 mph 5.0 mph 55% 0.00 in
13:04 81.4 °F 63.7 °F 29.94 in NNE 2.0 mph 5.0 mph 55% 0.00 in
13:09 81.5 °F 63.3 °F 29.94 in North 2.0 mph 5.0 mph 54% 0.00 in
13:14 82.0 °F 63.7 °F 29.94 in North 2.0 mph 5.0 mph 54% 0.00 in
13:19 82.1 °F 64.8 °F 29.95 in North 2.0 mph 5.0 mph 56% 0.00 in
13:24 81.6 °F 63.9 °F 29.95 in North 2.0 mph 10.0 mph 55% 0.00 in
13:29 80.7 °F 63.5 °F 29.94 in North 3.0 mph 10.0 mph 56% 0.00 in
13:34 80.9 °F 63.2 °F 29.94 in North 3.0 mph 10.0 mph 55% 0.00 in
13:39 80.6 °F 62.4 °F 29.94 in North 2.0 mph 11.0 mph 54% 0.00 in
13:44 80.4 °F 64.8 °F 29.94 in NNW 5.0 mph 9.0 mph 59% 0.00 in
13:49 80.8 °F 65.1 °F 29.94 in Calm   9.0 mph 59% 0.00 in
13:54 81.1 °F 66.8 °F 29.94 in NW 2.0 mph 6.0 mph 62% 0.00 in
13:59 81.3 °F 64.6 °F 29.94 in NNW 8.0 mph 8.0 mph 57% 0.00 in
14:04 81.1 °F 64.9 °F 29.94 in NNW 3.0 mph 8.0 mph 58% 0.00 in
14:09 80.2 °F 64.1 °F 29.94 in NNW 3.0 mph 8.0 mph 58% 0.00 in
14:14 79.7 °F 63.6 °F 29.94 in North 3.0 mph 12.0 mph 58% 0.00 in
14:19 80.7 °F 63.0 °F 29.94 in North 4.0 mph 12.0 mph 55% 0.00 in
14:24 81.0 °F 63.8 °F 29.94 in NW 3.0 mph 8.0 mph 56% 0.00 in
14:29 80.7 °F 61.4 °F 29.94 in North 4.0 mph 11.0 mph 52% 0.00 in
14:34 80.5 °F 61.3 °F 29.94 in NNE 3.0 mph 7.0 mph 52% 0.00 in
14:39 79.8 °F 60.1 °F 29.94 in NNE 3.0 mph 7.0 mph 51% 0.00 in
14:44 78.5 °F 59.4 °F 29.94 in NNE 4.0 mph 13.0 mph 52% 0.00 in
14:49 77.4 °F 60.5 °F 29.94 in North 2.0 mph 7.0 mph 56% 0.00 in
14:54 77.5 °F 60.1 °F 29.94 in NNW 3.0 mph 9.0 mph 55% 0.00 in
14:59 77.6 °F 61.7 °F 29.93 in NNE 2.0 mph 12.0 mph 58% 0.00 in
15:04 78.4 °F 62.4 °F 29.94 in NW 6.0 mph 11.0 mph 58% 0.00 in
15:09 78.5 °F 61.5 °F 29.94 in North 5.0 mph 11.0 mph 56% 0.00 in
15:14 78.3 °F 60.3 °F 29.93 in NNE 4.0 mph 11.0 mph 54% 0.00 in
15:19 77.7 °F 61.3 °F 29.93 in North 2.0 mph 13.0 mph 57% 0.00 in
15:24 77.6 °F 61.7 °F 29.93 in NE 4.0 mph 9.0 mph 58% 0.00 in
15:29 78.1 °F 63.1 °F 29.93 in NNE 2.0 mph 8.0 mph 60% 0.00 in
15:34 78.2 °F 63.2 °F 29.94 in NNE 5.0 mph 10.0 mph 60% 0.00 in
15:39 77.3 °F 63.3 °F 29.94 in North 5.0 mph 13.0 mph 62% 0.00 in
15:44 77.0 °F 63.4 °F 29.94 in North 4.0 mph 13.0 mph 63% 0.00 in
15:49 76.1 °F 62.6 °F 29.94 in North 4.0 mph 11.0 mph 63% 0.00 in
15:54 74.9 °F 62.3 °F 29.94 in North 5.0 mph 14.0 mph 65% 0.00 in
15:59 74.4 °F 62.3 °F 29.94 in North 5.0 mph 14.0 mph 66% 0.00 in
16:04 74.2 °F 63.0 °F 29.94 in NNW 3.0 mph 9.0 mph 68% 0.00 in
16:09 73.9 °F 62.7 °F 29.94 in NW 5.0 mph 10.0 mph 68% 0.00 in
16:14 74.0 °F 63.2 °F 29.94 in NNE 1.0 mph 10.0 mph 69% 0.00 in
16:19 74.4 °F 63.6 °F 29.94 in North 1.0 mph 8.0 mph 69% 0.00 in
16:24 74.4 °F 63.6 °F 29.94 in NNW 2.0 mph 7.0 mph 69% 0.00 in
16:29 74.9 °F 62.8 °F 29.94 in North 2.0 mph 4.0 mph 66% 0.00 in
16:34 74.2 °F 62.1 °F 29.94 in NNW 5.0 mph 9.0 mph 66% 0.00 in
16:39 73.9 °F 62.7 °F 29.94 in North 3.0 mph 9.0 mph 68% 0.00 in
16:44 74.2 °F 63.0 °F 29.94 in North 3.0 mph 8.0 mph 68% 0.00 in
16:49 74.3 °F 63.1 °F 29.94 in NNE 3.0 mph 8.0 mph 68% 0.00 in
16:54 74.2 °F 63.4 °F 29.94 in NE 3.0 mph 9.0 mph 69% 0.00 in
16:59 74.1 °F 63.3 °F 29.94 in North 3.0 mph 5.0 mph 69% 0.00 in
17:04 73.9 °F 62.7 °F 29.94 in NE 1.0 mph 6.0 mph 68% 0.00 in
17:09 73.4 °F 62.6 °F 29.94 in NE 1.0 mph 9.0 mph 69% 0.00 in
17:14 73.2 °F 62.8 °F 29.94 in NE 3.0 mph 9.0 mph 70% 0.00 in
17:19 73.0 °F 62.2 °F 29.94 in NE 4.0 mph 9.0 mph 69% 0.00 in
17:24 73.1 °F 63.1 °F 29.95 in NE 1.0 mph 5.0 mph 71% 0.00 in
17:29 73.2 °F 63.2 °F 29.94 in NNW 1.0 mph 5.0 mph 71% 0.00 in
17:34 72.7 °F 62.8 °F 29.95 in NE 3.0 mph 6.0 mph 71% 0.00 in
17:39 72.4 °F 62.5 °F 29.94 in ENE 5.0 mph 7.0 mph 71% 0.00 in
17:44 73.0 °F 63.8 °F 29.95 in NE 3.0 mph 9.0 mph 73% 0.00 in
17:49 73.0 °F 64.6 °F 29.95 in NE 3.0 mph 9.0 mph 75% 0.00 in
17:54 73.4 °F 63.8 °F 29.95 in NE 4.0 mph 10.0 mph 72% 0.00 in
17:59 73.3 °F 63.7 °F 29.95 in NE 2.0 mph 10.0 mph 72% 0.00 in
18:04 73.3 °F 63.7 °F 29.95 in North 2.0 mph 5.0 mph 72% 0.00 in
18:09 73.7 °F 64.1 °F 29.94 in NNE 2.0 mph 5.0 mph 72% 0.00 in
18:14 73.9 °F 63.9 °F 29.94 in NNE 2.0 mph 5.0 mph 71% 0.00 in
18:19 73.7 °F 64.1 °F 29.95 in NNE 1.0 mph 5.0 mph 72% 0.00 in
18:24 73.8 °F 64.2 °F 29.95 in NE 3.0 mph 9.0 mph 72% 0.00 in
18:29 74.1 °F 64.9 °F 29.95 in NE 3.0 mph 9.0 mph 73% 0.00 in
18:34 74.0 °F 64.4 °F 29.95 in NNW 1.0 mph 6.0 mph 72% 0.00 in
18:39 73.6 °F 64.4 °F 29.94 in North 2.0 mph 5.0 mph 73% 0.00 in
18:44 73.3 °F 64.1 °F 29.94 in NNE 3.0 mph 7.0 mph 73% 0.00 in
18:49 73.3 °F 64.1 °F 29.94 in NE 2.0 mph 6.0 mph 73% 0.00 in
18:54 72.9 °F 64.1 °F 29.95 in NE 2.0 mph 4.0 mph 74% 0.00 in
18:59 72.8 °F 64.0 °F 29.94 in ENE 4.0 mph 5.0 mph 74% 0.00 in
19:04 72.8 °F 64.0 °F 29.95 in ENE 3.0 mph 8.0 mph 74% 0.00 in
19:09 73.2 °F 64.4 °F 29.94 in ENE 4.0 mph 9.0 mph 74% 0.00 in
19:14 73.4 °F 64.6 °F 29.95 in NE 3.0 mph 9.0 mph 74% 0.00 in
19:19 73.3 °F 64.5 °F 29.95 in NNE 2.0 mph 7.0 mph 74% 0.00 in
19:24 73.1 °F 64.7 °F 29.95 in NNE 2.0 mph 7.0 mph 75% 0.00 in
19:29 72.7 °F 64.3 °F 29.95 in NE 3.0 mph 9.0 mph 75% 0.00 in
19:34 72.7 °F 64.3 °F 29.95 in NE 2.0 mph 9.0 mph 75% 0.00 in
19:39 72.4 °F 64.0 °F 29.95 in Calm   3.0 mph 75% 0.00 in
19:44 72.2 °F 63.8 °F 29.95 in NE 1.0 mph 4.0 mph 75% 0.00 in
19:49 72.0 °F 63.6 °F 29.95 in NE 2.0 mph 7.0 mph 75% 0.00 in
19:54 72.0 °F 64.0 °F 29.95 in NE 1.0 mph 3.0 mph 76% 0.00 in
19:59 71.9 °F 63.5 °F 29.95 in NE 4.0 mph 7.0 mph 75% 0.00 in
20:04 71.7 °F 63.4 °F 29.96 in NNE 2.0 mph 7.0 mph 75% 0.00 in
20:09 71.5 °F 63.2 °F 29.96 in ENE 2.0 mph 8.0 mph 75% 0.00 in
20:14 71.3 °F 63.3 °F 29.96 in NE 3.0 mph 8.0 mph 76% 0.00 in
20:19 71.1 °F 63.1 °F 29.96 in NE 3.0 mph 5.0 mph 76% 0.00 in
20:24 70.9 °F 63.3 °F 29.97 in NNE 2.0 mph 5.0 mph 77% 0.00 in
20:29 70.8 °F 63.2 °F 29.96 in NNE 2.0 mph 8.0 mph 77% 0.00 in
20:34 70.5 °F 62.9 °F 29.97 in NE 3.0 mph 8.0 mph 77% 0.00 in
20:39 70.3 °F 63.1 °F 29.97 in NNE 2.0 mph 4.0 mph 78% 0.00 in
20:44 70.1 °F 62.9 °F 29.97 in NE 3.0 mph 7.0 mph 78% 0.00 in
20:49 70.0 °F 62.8 °F 29.97 in NE 3.0 mph 7.0 mph 78% 0.00 in
20:54 69.8 °F 63.0 °F 29.97 in NE 2.0 mph 6.0 mph 79% 0.00 in
20:59 69.5 °F 63.1 °F 29.97 in Calm   4.0 mph 80% 0.00 in
21:04 69.5 °F 63.1 °F 29.97 in NE 2.0 mph 8.0 mph 80% 0.00 in
21:09 69.4 °F 63.0 °F 29.97 in NNE 2.0 mph 5.0 mph 80% 0.00 in
21:14 69.3 °F 62.9 °F 29.97 in NNE 2.0 mph 5.0 mph 80% 0.00 in
21:19 69.2 °F 62.8 °F 29.97 in NE 2.0 mph 5.0 mph 80% 0.00 in
21:24 69.0 °F 62.9 °F 29.98 in NE 2.0 mph 7.0 mph 81% 0.00 in
21:29 68.8 °F 63.1 °F 29.98 in NE 1.0 mph 7.0 mph 82% 0.00 in
21:34 68.8 °F 63.1 °F 29.98 in NNE 2.0 mph 5.0 mph 82% 0.00 in
21:39 68.6 °F 62.9 °F 29.98 in NNE 1.0 mph 4.0 mph 82% 0.00 in
21:44 68.5 °F 62.8 °F 29.98 in NNE 1.0 mph 5.0 mph 82% 0.00 in
21:49 68.5 °F 62.8 °F 29.98 in NE 1.0 mph 5.0 mph 82% 0.00 in
21:54 68.4 °F 62.7 °F 29.98 in NE 2.0 mph 7.0 mph 82% 0.00 in
21:59 68.3 °F 62.6 °F 29.98 in NE 1.0 mph 7.0 mph 82% 0.00 in
22:04 68.2 °F 62.8 °F 29.98 in NE 4.0 mph 8.0 mph 83% 0.00 in
22:09 68.3 °F 62.6 °F 29.99 in Calm   7.0 mph 82% 0.00 in
22:14 68.1 °F 62.4 °F 29.99 in NE 1.0 mph 2.0 mph 82% 0.00 in
22:19 67.9 °F 62.5 °F 29.99 in NE 1.0 mph 3.0 mph 83% 0.00 in
22:24 67.8 °F 62.4 °F 29.99 in ENE 2.0 mph 5.0 mph 83% 0.00 in
22:29 67.9 °F 62.5 °F 29.99 in NE 2.0 mph 6.0 mph 83% 0.00 in
22:34 68.0 °F 62.6 °F 29.98 in NE 3.0 mph 7.0 mph 83% 0.00 in
22:39 68.0 °F 62.6 °F 29.98 in Calm   7.0 mph 83% 0.00 in
22:44 67.8 °F 62.4 °F 29.98 in NE 4.0 mph 6.0 mph 83% 0.00 in
22:49 67.7 °F 62.7 °F 29.99 in NE 2.0 mph 8.0 mph 84% 0.00 in
22:54 67.6 °F 62.6 °F 29.99 in NE 3.0 mph 8.0 mph 84% 0.00 in
22:59 67.5 °F 62.5 °F 29.99 in NE 3.0 mph 7.0 mph 84% 0.00 in
23:04 67.4 °F 62.4 °F 29.99 in NE 3.0 mph 7.0 mph 84% 0.00 in
23:09 67.2 °F 62.2 °F 29.99 in Calm   2.0 mph 84% 0.00 in
23:14 66.9 °F 62.2 °F 29.99 in NE 2.0 mph 3.0 mph 85% 0.00 in
23:19 66.8 °F 62.1 °F 29.99 in Calm   4.0 mph 85% 0.00 in
23:24 66.8 °F 62.5 °F 29.98 in NE 2.0 mph 5.0 mph 86% 0.00 in
23:29 66.9 °F 62.6 °F 29.98 in NE 3.0 mph 5.0 mph 86% 0.00 in
23:34 66.7 °F 62.0 °F 29.99 in ENE 2.0 mph 4.0 mph 85% 0.00 in
23:39 66.6 °F 62.3 °F 29.99 in Calm   4.0 mph 86% 0.00 in
23:44 66.5 °F 62.2 °F 29.99 in ENE 1.0 mph 4.0 mph 86% 0.00 in
23:49 66.4 °F 62.1 °F 29.99 in ENE 1.0 mph 4.0 mph 86% 0.00 in
23:54 66.4 °F 62.1 °F 29.99 in ENE 2.0 mph 4.0 mph 86% 0.00 in
23:59 66.3 °F 62.0 °F 29.99 in ENE 1.0 mph 4.0 mph 86% 0.00 in
Buffalo, New York, USA
Compliments of Weather Underground - 2.5 mb